Regional Weather Roundup
Issued by NWS Sterling, VA

Home | Current Version | Previous Version | Text Only | Print | Product List | Glossary On
Versions: 1 2 3 4 5 6 7 8 9 10 11 12 13 14 15 16 17 18 19 20 21 22 23 24 25 26 27 28 29 30 31 32 33 34 35 36 37 38 39 40 41 42 43 44 45 46 47 48 49 50
000
ASUS41 KLWX 010910
RWRLWX

REGIONAL WEATHER ROUNDUP
NATIONAL WEATHER SERVICE BALTIMORE MD/WASHINGTON DC
500 AM EDT FRI AUG 01 2014

Note: "FAIR" indicates few or no clouds below 12,000 feet
with no significant weather and/or obstructions to visibility.
 TC=TEMPERATURE CELSIUS

 * =Non NWS site. Station does not report precipitation (e.g. rain,
    snow, etc.), thunder, or fog.

DCZ001-MDZ009-015-VAZ040>042-051-053>054-011000-
WASHINGTON METRO
  /KDAA//-FT BELVOIR

CITY           SKY/WX    TMP DP  RH WIND       PRES   REMARKS
WASHINGTON NAT CLOUDY    77  67  71 S9        30.14S
DULLES         CLOUDY    69  65  86 S3        30.13S
ANDREWS AFB    CLOUDY    70  69  95 S7        30.14S
QUANTICO       CLOUDY    74  67  78 SW5       30.14F
COLLEGE PARK*  CLOUDY    72  68  88 CALM      30.13S
LEESBURG*      CLOUDY    68  68 100 CALM      30.14S
MANASSAS*      CLOUDY    70  70 100 CALM      30.13S
GAITHERSBURG*  MOCLDY    68  64  88 CALM      30.17F

$$

MDZ006>007-011-014-011000-
BALTIMORE METRO

CITY           SKY/WX    TMP DP  RH WIND       PRES   REMARKS
BWI AIRPORT    CLOUDY    71  67  87 CALM      30.13F
MD SCIENCE CTR   N/A     74  67  78 MISG      30.14F
MARTIN STATE   MOCLDY    73  72  94 S3        30.15S
ANNAPOLIS      CLOUDY    74  68  81 S12       30.13F
FORT MEADE*    MOCLDY    64  63  94 SE3       30.16S

$$

MDZ012-015-019>023-011000-
MARYLAND EASTERN SHORE

CITY           SKY/WX    TMP DP  RH WIND       PRES   REMARKS
OCEAN CITY     CLOUDY    74  67  78 SW3       30.16F
SALISBURY      CLOUDY    70  65  84 CALM      30.16F
BAY BRIDGE AP*   N/A     75  68  78 S8        30.14S
CAMBRIDGE*     CLOUDY    77  68  73 S3        30.15S
EASTON*        CLOUDY    73  73 100 CALM      30.19S

$$

MDZ017>025-011000-
SOUTHERN MARYLAND

CITY           SKY/WX    TMP DP  RH WIND       PRES   REMARKS
PATUXENT RIVER CLOUDY    73  65  75 S5        30.14F
ST INIGOES     CLOUDY    74  64  71 S6        30.14F
LEONARDTOWN*   CLOUDY    72  63  73 CALM      30.16F

$$

MDZ003>005-011000-
NORTH CENTRAL MARYLAND

CITY           SKY/WX    TMP DP  RH WIND       PRES   REMARKS
FREDERICK*     MOCLDY    64  64 100 CALM      30.16S FOG
HAGERSTOWN APT PTCLDY    64  60  87 NW3       30.14R
WESTMINSTER*   MOCLDY    70  66  88 S5        30.15S

$$

MDZ501>502-011000-
WESTERN MARYLAND

CITY           SKY/WX    TMP DP  RH WIND       PRES   REMARKS
OAKLAND*       MOCLDY    59  57  94 S5        30.20F
CUMBERLAND*    MOCLDY    61  57  88 N5        30.18S

$$

VAZ025>031-011000-
SHENANDOAH VALLEY

CITY           SKY/WX    TMP DP  RH WIND       PRES   REMARKS
WINCHESTER*    MOCLDY    63  61  94 CALM      30.13S
STAUNTON*      CLOUDY    66  62  87 CALM      30.17F

$$

WVZ021-048>050-054>055-011000-
EASTERN WEST VIRGINIA PANHANDLE

CITY           SKY/WX    TMP DP  RH WIND       PRES   REMARKS
MARTINSBURG    MOCLDY    63  59  87 CALM      30.14S FOG
PETERSBURG*    CLOUDY    59  56  88 CALM      30.16S FOG

$$

VAZ036>039-050-011000-
CENTRAL FOOTHILLS

CITY           SKY/WX    TMP DP  RH WIND       PRES   REMARKS
CHARLOTTESVILL CLOUDY    69  64  84 S5        30.14S
ORANGE*        CLOUDY    68  64  88 CALM      30.15S

$$

VAZ055>057-011000-
NORTH AND CENTRAL PIEDMONT

CITY           SKY/WX    TMP DP  RH WIND       PRES   REMARKS
FREDERICKSBRG* CLOUDY    72  68  87 S3        30.13S
STAFFORD*      CLOUDY    68  68 100 CALM      30.17F

$$

NCZ024-NYZ072-PAZ021-071-VAZ022-071-011000-
OTHER REGIONAL OBSERVATIONS

CITY           SKY/WX    TMP DP  RH WIND       PRES   REMARKS
NEW YORK CITY  CLEAR     71  65  81 VRB5      30.19S
PHILADELPHIA   CLOUDY    72  66  81 SW7       30.17S
PITTSBURGH     PTCLDY    60  58  92 CALM      30.13S
ROANOKE        LGT RAIN  66  64  93 E3        30.18F
RICHMOND       CLOUDY    71  67  87 SE3       30.14S
RALEIGH        CLOUDY    70  67  90 NE6       30.11F

$$

ANZ530>537-011000-
MARINE OBSERVATIONS

STATION/POSITION TIME  TEMP    WIND        PRES
                       AIR SEA DIR/SP/G
                 (UTC) (F)     (DEG/KT/KT) (MB)
THOMAS PT LIGHT  0900   75 78  190/ 16/ 18 1021.0F
BALT KEY BRIDGE  0900   86     170/ 11/ 13 1020.0F
COVE POINT       0900   74     210/  9/ 10 1020.7S
LEWISETTA        0900   73 78  190/  4/  5 1020.4F
SOLOMONS ISLAND  0900      79                N/A
PINEY POINT      0900          190/ 10/ 11   N/A

$$




USA.gov is the U.S. government's official web portal to all federal, state and local government web resources and services.